Location: Charlottesville
(38.0290°N, 78.4770°W)
Time: 07:31:22
(UTC-04:00)

Envisat - Pass Details

Date: 12 October 2017
Orbit: 764 x 766 km, 98.2° (Epoch: 17 October)

Event Time Altitude Azimuth Distance (km) Brightness Sun altitude
Exits shadow 21:33:58 32° 317° (NW) 1,303 4.5 -34.7°
Drops below altitude 10° 21:36:51 10° 336° (NNW) 2,307 5.9 -35.2°
Sets 21:39:15 0° 342° (NNW) 3,238 6.7 -35.6°
